Location: Newark
(16.3678°N, 77.8722°E)
Time: 10:36:49
(UTC+00:00)

S-56A Canister/Altair - Pass Details

Date: 11 December 2019
Orbit: 634 x 2498 km, 38.9° (Epoch: 23 January)

Event Time Altitude Azimuth Distance (km) Brightness Sun altitude
Rises 09:44:25 0° 309° (NW) 6,132 12.3 30.4°
Reaches altitude 10° 09:49:06 10° 317° (NW) 5,013 11.8 29.6°
Maximum altitude 10:01:52 40° 22° (NNE) 2,676 10.2 27.2°
Drops below altitude 10° 10:11:13 10° 89° (E) 3,714 10.6 25.4°
Sets 10:14:06 0° 97° (E) 4,449 11.0 24.8°
